FW0984 Weather Reports


Display with metric or nautical units.
time (UTC)temp
F
wind
direction
speed
MPH
gust
MPH
rain 1hr
in
rain 24hr
in
rain mn
in
humidity
%
barometer
mb
20260901111519 69 166 0.0 0.0 0.00 0.00 0.00 94 1018.5
20260901110016 69 166 0.0 0.0 0.00 0.00 0.00 94 1018.3
20260901104515 69 166 0.0 0.0 0.00 0.00 0.00 94 1018.3
20260901103011 70 166 0.0 0.0 0.00 0.00 0.00 94 1018.2
20260901101510 70 166 0.0 0.0 0.00 0.00 0.00 94 1018.2
20260901100008 70 166 0.0 0.0 0.00 0.00 0.00 94 1018.0
20260901094507 70 166 0.0 0.0 0.00 0.00 0.00 94 1017.9
20260901093005 70 166 0.0 0.0 0.00 0.00 0.00 94 1017.8
20260901091506 70 166 0.0 0.0 0.00 0.00 0.00 93 1017.9
20260901090007 71 166 0.0 0.0 0.00 0.00 0.00 94 1017.7
20260901084604 71 166 0.0 0.0 0.00 0.00 0.00 93 1017.5
20260901083059 71 166 0.0 0.0 0.00 0.00 0.00 93 1017.5
20260901081556 71 166 0.0 0.0 0.00 0.00 0.00 93 1017.5
20260901080058 71 166 0.0 0.0 0.00 0.00 0.00 93 1017.6
20260901074553 72 166 0.0 0.0 0.00 0.00 0.00 92 1017.4
20260901073059 72 166 0.0 0.0 0.00 0.00 0.00 92 1017.4
20260901071551 72 166 0.0 0.0 0.00 0.00 0.00 92 1017.3
20260901064549 72 166 0.0 0.0 0.00 0.00 0.00 92 1017.2
20260901063047 72 166 0.0 0.0 0.00 0.00 0.00 93 1017.1
20260901061546 72 166 0.0 0.0 0.00 0.00 0.00 93 1017.0
20260901060044 73 166 0.0 0.0 0.00 0.00 0.00 92 1017.0
20260901054543 73 166 0.0 0.0 0.00 0.00 0.00 92 1017.5
20260901053044 73 166 0.0 0.0 0.00 0.00 0.00 92 1017.5
20260901051543 73 166 0.0 0.0 0.00 0.00 0.00 91 1017.4
20260901050038 73 166 0.0 0.0 0.00 0.00 0.00 91 1017.5
20260901044552 74 166 0.0 0.0 0.00 0.00 0.00 91 1017.6
20260901043034 74 166 0.0 0.0 0.00 0.00 0.00 91 1017.9
20260901041532 74 166 0.0 0.0 0.00 0.00 0.00 90 1018.1
20260901040025 74 166 0.0 0.0 0.00 0.00 0.00 90 1018.1
20260901034532 74 166 0.0 0.0 0.00 0.00 0.00 90 1017.9
20260901033046 75 166 0.0 0.0 0.00 0.00 0.00 89 1018.1
20260901031523 75 166 0.0 0.0 0.00 0.00 0.00 89 1018.2
20260901030028 75 166 0.0 0.0 0.00 0.00 0.00 88 1018.2
20260901024526 76 166 0.0 0.0 0.00 0.00 0.00 87 1018.1
20260901023021 76 166 0.0 0.0 0.00 0.00 0.00 87 1018.2
20260901021521 77 166 0.0 0.0 0.00 0.00 0.00 86 1018.2
20260901020021 78 166 0.0 0.0 0.00 0.00 0.00 85 1018.2
20260901014520 78 166 0.0 0.0 0.00 0.00 0.00 84 1018.1
20260901013020 79 166 0.0 0.0 0.00 0.00 0.00 83 1017.9
20260901011519 80 166 0.0 0.0 0.00 0.00 0.00 80 1017.9
20260901010020 80 166 0.0 0.0 0.00 0.00 0.00 78 1017.8
20260901004517 81 166 0.0 0.0 0.00 0.00 0.00 78 1017.6
20260901003033 82 166 0.0 0.0 0.00 0.00 0.00 76 1017.4
20260901001518 83 293 0.0 0.0 0.00 0.00 0.00 73 1017.1
20260901000030 84 293 0.0 0.0 0.00 0.00 0.00 71 1017.0
20260831234515 85 293 0.0 0.0 0.00 0.00 0.00 69 1016.8
20260831233014 85 293 0.0 0.0 0.00 0.00 0.00 68 1016.6
20260831231516 86 293 0.0 0.0 0.00 0.00 0.00 67 1016.3
20260831230017 86 293 0.0 0.0 0.00 0.00 0.00 67 1016.3
20260831224513 87 300 0.0 0.0 0.00 0.00 0.00 66 1016.2
20260831223013 87 300 0.0 0.0 0.00 0.00 0.00 63 1016.4
20260831221509 87 309 0.0 0.0 0.00 0.00 0.00 62 1016.7
20260831220019 88 309 0.0 0.0 0.00 0.00 0.00 61 1017.0
20260831214506 88 308 0.0 0.0 0.00 0.00 0.00 60 1017.1
20260831213007 89 264 0.0 0.0 0.00 0.00 0.00 61 1017.2
20260831211503 89 264 0.0 0.0 0.00 0.00 0.00 58 1017.3
20260831210001 89 288 0.0 0.0 0.00 0.00 0.00 59 1017.5
20260831204601 90 306 0.0 0.0 0.00 0.00 0.00 57 1017.7
20260831203105 90 275 0.0 0.0 0.00 0.00 0.00 58 1017.8
20260831201557 89 300 0.0 0.0 0.00 0.00 0.00 57 1017.8
20260831200107 88 76 0.0 0.0 0.00 0.00 0.00 63 1018.2
20260831194610 89 323 0.0 0.0 0.00 0.00 0.00 60 1018.4
20260831193055 89 291 0.0 0.0 0.00 0.00 0.00 60 1018.5
20260831191554 89 252 0.0 0.0 0.00 0.00 0.00 59 1018.5
20260831190105 89 311 0.0 0.0 0.00 0.00 0.00 66 1018.7
20260831184552 89 294 0.0 0.0 0.00 0.00 0.00 62 1019.0
20260831183051 90 285 0.0 0.0 0.00 0.00 0.00 62 1019.1
20260831181556 89 304 0.0 0.0 0.00 0.00 0.00 64 1019.0
20260831180055 88 283 0.0 0.0 0.00 0.00 0.00 66 1019.2
20260831174544 86 319 0.0 0.0 0.00 0.00 0.00 72 1019.3
20260831173043 87 318 0.0 0.0 0.00 0.00 0.00 69 1019.4
20260831171542 87 287 0.0 0.0 0.00 0.00 0.00 69 1019.5
20260831170041 87 279 0.0 0.0 0.00 0.00 0.00 74 1019.4
20260831164543 85 254 0.0 0.0 0.00 0.00 0.00 75 1019.7
20260831163040 85 279 0.0 0.0 0.00 0.00 0.00 74 1019.8
20260831161544 84 300 0.0 0.0 0.00 0.00 0.00 73 1019.8
20260831160037 86 289 0.0 0.0 0.00 0.00 0.00 71 1019.8
20260831154535 87 294 0.0 0.0 0.00 0.00 0.00 71 1019.8
20260831153030 86 263 0.0 0.0 0.00 0.00 0.00 72 1019.8
20260831151529 84 269 0.0 0.0 0.00 0.00 0.00 75 1019.7
20260831150023 83 269 0.0 0.0 0.00 0.00 0.00 78 1019.8
20260831144522 81 163 0.0 0.0 0.00 0.00 0.00 81 1019.7
20260831143014 79 244 0.0 0.0 0.00 0.00 0.00 87 1019.7
20260831141509 77 244 0.0 0.0 0.00 0.00 0.00 86 1019.6
20260831140007 76 244 0.0 0.0 0.00 0.00 0.00 91 1019.6
20260831134502 74 244 0.0 0.0 0.00 0.00 0.00 94 1019.6
20260831133100 73 244 0.0 0.0 0.00 0.00 0.00 96 1019.7
20260831131554 72 130 0.0 0.0 0.00 0.00 0.00 96 1019.6
20260831130051 71 130 0.0 0.0 0.00 0.00 0.00 96 1019.5
20260831124550 70 130 0.0 0.0 0.00 0.00 0.00 96 1019.6
20260831123043 70 130 0.0 0.0 0.00 0.00 0.00 95 1019.5
20260831121542 69 130 0.0 0.0 0.00 0.00 0.00 95 1019.5
20260831120042 69 130 0.0 0.0 0.00 0.00 0.00 95 1019.5
20260831114538 69 130 0.0 0.0 0.00 0.00 0.00 95 1019.3
20260831113034 69 130 0.0 0.0 0.00 0.00 0.00 95 1019.1